This demonstration page uses our WeatherBlox Daily Observations layout. Learn more.

Hourly Observations for July 27, 2019

Temp ( °F °C ) Dew Point ( °F °C ) Humidity (%) Winds ( mph kmh ) Pressure ( in mb ) Visibility ( mi km ) Precip ( " mm )
12:15 am 00:15 Clear 70 21.3 62 16.7 75 75 S 7 11 30 1016 10 16.09344 0 0
12:35 am 00:35 Clear 70 21 62 16.6 76 76 S 7 11 30 1016 10 16.09344 0 0
12:55 am 00:55 Clear 70 21.3 62 16.4 74 74 S 9 15 30 1016 10 16.09344 0 0
1:15 am 01:15 Clear 71 21.6 61 16 71 71 SSW 8 13 30 1016 10 16.09344 0 0
1:35 am 01:35 Clear 72 22 60 15.7 68 68 S 8 13 30 1016 10 16.09344 0 0
1:55 am 01:55 Clear 71 21.7 60 15.3 67 67 SSW 8 13 30 1016 10 16.09344 0 0
2:15 am 02:15 Clear 71 21.5 59 15.2 67 67 SSW 8 13 30 1016 10 16.09344 0 0
2:35 am 02:35 Clear 70 21 59 15.2 70 70 SSW 8 13 30 1016 10 16.09344 0 0
2:55 am 02:55 Clear 70 21.1 59 15.2 69 69 SSW 7 11 30 1016 10 16.09344 0 0
3:15 am 03:15 Clear 70 21 59 15.1 69 69 SSW 8 13 30 1016 10 16.09344 0 0
3:35 am 03:35 Clear 69 20.8 59 15.1 70 70 SSW 8 13 30 1016 10 16.09344 0 0
3:55 am 03:55 Clear 69 20.3 59 15.2 73 73 SSW 7 11 30.03 1017 10 16.09344 0 0
4:15 am 04:15 Clear 69 20.3 59 15.2 73 73 SSW 7 11 30.03 1017 10 16.09344 0 0
4:35 am 04:35 Clear 67 19.7 59 15.2 75 75 SW 6 9 30.03 1017 10 16.09344 0 0
4:55 am 04:55 Clear 67 19.7 59 15.2 75 75 SSW 8 13 30.03 1017 10 16.09344 0 0
5:15 am 05:15 Clear 67 19.6 60 15.3 76 76 SSW 6 9 30.03 1017 10 16.09344 0 0
5:35 am 05:35 Clear 67 19.6 60 15.3 76 76 SSW 5 7 30.03 1017 10 16.09344 0 0
5:55 am 05:55 Clear 67 19.5 59 15.2 76 76 S 5 7 30.03 1017 10 16.09344 0 0
6:15 am 06:15 Clear 67 19.3 59 15.2 77 77 S 6 9 30.03 1017 10 16.09344 0 0
6:35 am 06:35 Sunny 67 19.3 59 15.2 77 77 S 6 9 30.03 1017 10 16.09344 0 0
6:55 am 06:55 Sunny 67 19.3 59 15.2 77 77 SSW 6 9 30.03 1017 10 16.09344 0 0
7:15 am 07:15 Sunny 67 19.5 60 15.5 78 78 SSW 7 11 30.03 1017 10 16.09344 0 0
7:35 am 07:35 Sunny 68 20.1 60 15.5 75 75 SSW 8 13 30.03 1017 10 16.09344 0 0
7:55 am 07:55 Sunny 70 20.9 60 15.7 72 72 SSW 7 11 30 1016 10 16.09344 0 0
8:15 am 08:15 Sunny 69 20.8 60 15.6 72 72 S 8 13 30 1016 10 16.09344 0 0
8:35 am 08:35 Sunny 71 21.5 60 15.7 70 70 SSW 9 15 30 1016 10 16.09344 0 0
8:55 am 08:55 Sunny 72 22.1 61 16 68 68 SSW 9 15 30 1016 10 16.09344 0 0
9:15 am 09:15 Sunny 73 22.9 61 16.1 66 66 SSW 8 13 30.03 1017 10 16.09344 0 0
9:35 am 09:35 Sunny 75 23.7 62 16.5 64 64 S 10 17 30 1016 10 16.09344 0 0
9:55 am 09:55 Sunny 76 24.7 62 16.8 62 62 SSW 10 17 29.97 1015 10 16.09344 0 0
10:15 am 10:15 Sunny 77 25 63 17.1 62 62 S 9 15 29.97 1015 10 16.09344 0 0
10:35 am 10:35 Sunny 78 25.8 63 17.3 59 59 SSW 10 17 29.97 1015 10 16.09344 0 0
10:55 am 10:55 Sunny 79 26 63 17.3 59 59 S 10 17 29.97 1015 10 16.09344 0 0
11:15 am 11:15 Sunny 80 26.6 63 17.4 57 57 SSW 10 17 29.97 1015 10 16.09344 0 0
11:35 am 11:35 Sunny 81 27.3 64 17.8 56 56 S 10 17 29.97 1015 10 16.09344 0 0
11:55 am 11:55 Sunny 82 27.5 64 17.8 56 56 SSW 12 19 29.97 1015 10 16.09344 0 0
12:15 pm 12:15 Sunny 82 28 64 17.8 54 54 S 9 15 29.94 1014 10 16.09344 0 0
12:35 pm 12:35 Sunny 82 28 65 18.5 56 56 S 9 15 29.94 1014 10 16.09344 0 0
12:55 pm 12:55 Sunny 83 28.1 64 17.9 54 54 SSE 10 17 29.94 1014 10 16.09344 0 0
1:15 pm 13:15 Sunny 84 28.7 64 17.9 52 52 S 10 17 29.94 1014 10 16.09344 0 0
1:35 pm 13:35 Sunny 84 28.7 65 18.3 53 53 S 9 15 29.94 1014 10 16.09344 0 0
1:55 pm 13:55 Sunny 84 28.9 66 18.8 54 54 SSE 8 13 29.94 1014 10 16.09344 0 0
2:15 pm 14:15 Sunny 85 29.5 67 19.3 54 54 SSE 9 15 29.94 1014 10 16.09344 0 0
2:35 pm 14:35 Sunny 86 29.9 67 19.3 53 53 SSE 9 15 29.91 1013 7 11.265408 0 0
2:55 pm 14:55 Sunny 87 30.4 67 19.2 51 51 SSE 9 15 29.91 1013 10 16.09344 0 0
3:15 pm 15:15 Sunny 88 30.9 66 19.1 49 49 SSE 10 17 29.91 1013 10 16.09344 0 0
3:35 pm 15:35 Sunny 89 31.4 67 19.6 50 50 SSE 10 17 29.88 1012 10 16.09344 0 0
3:55 pm 15:55 Sunny 88 31.3 64 18 45 45 SSE 12 19 29.88 1012 10 16.09344 0 0
4:15 pm 16:15 Sunny 89 31.6 65 18.3 45 45 SSE 12 19 29.85 1011 10 16.09344 0 0
4:35 pm 16:35 Sunny 90 32 64 17.9 43 43 SSE 9 15 29.85 1011 10 16.09344 0 0
4:55 pm 16:55 Sunny 90 32.3 66 18.8 45 45 SSE 8 13 29.85 1011 10 16.09344 0 0
5:15 pm 17:15 Sunny 90 32.2 67 19.5 47 47 SSE 8 13 29.85 1011 10 16.09344 0 0
5:35 pm 17:35 Sunny 90 32.1 68 20.2 49 49 SSE 8 13 29.85 1011 10 16.09344 0 0
5:55 pm 17:55 Sunny 89 31.9 68 19.8 49 49 SSE 9 15 29.85 1011 10 16.09344 0 0
6:15 pm 18:15 Sunny 89 31.6 70 21.1 54 54 SE 8 13 29.83 1010 10 16.09344 0 0
6:35 pm 18:35 Sunny 89 31.4 70 20.9 54 54 SE 7 11 29.83 1010 10 16.09344 0 0
6:55 pm 18:55 Sunny 88 31.1 69 20.7 54 54 SE 8 13 29.83 1010 10 16.09344 0 0
7:15 pm 19:15 Sunny 87 30.3 70 21 58 58 SE 7 11 29.85 1011 10 16.09344 0 0
7:35 pm 19:35 Sunny 86 29.9 69 20.7 58 58 SE 7 11 29.85 1011 10 16.09344 0 0
7:55 pm 19:55 Sunny 83 28.2 67 19.7 60 60 SE 8 13 29.85 1011 10 16.09344 0 0
8:15 pm 20:15 Sunny 81 27.4 67 19.5 62 62 SE 8 13 29.85 1011 10 16.09344 0 0
8:35 pm 20:35 Sunny 81 27.3 66 18.7 59 59 SE 10 17 29.85 1011 10 16.09344 0 0
8:55 pm 20:55 Sunny 80 26.5 65 18.2 60 60 SE 9 15 29.88 1012 10 16.09344 0 0
9:15 pm 21:15 Clear 80 26.5 64 17.5 58 58 SSE 10 17 29.88 1012 10 16.09344 0 0
9:35 pm 21:35 Clear 78 25.8 64 17.5 60 60 SSE 9 15 29.88 1012 10 16.09344 0 0
9:55 pm 21:55 Clear 78 25.3 63 17.3 61 61 SSE 8 13 29.88 1012 10 16.09344 0 0
10:15 pm 22:15 Clear 78 25.3 63 17 60 60 SSE 9 15 29.91 1013 10 16.09344 0 0
10:35 pm 22:35 Clear 77 24.9 62 16.8 61 61 SSE 9 15 29.91 1013 10 16.09344 0 0
10:55 pm 22:55 Clear 77 24.9 62 16.6 60 60 SSE 8 13 29.91 1013 10 16.09344 0 0
11:15 pm 23:15 Clear 77 24.9 62 16.5 60 60 S 8 13 29.91 1013 10 16.09344 0 0
11:35 pm 23:35 Clear 76 24.6 61 16.1 59 59 SSE 7 11 29.91 1013 10 16.09344 0 0
11:55 pm 23:55 Clear 75 24.1 61 16.2 61 61 SSE 7 11 29.91 1013 10 16.09344 0 0

Powered by AerisWeather